Tracking 21473 objects as of 26-Sep-2020
HD Live streaming from Space Station
objects crossing your sky now

DELTA 1 DEB

Track DELTA 1 DEB now!
10-day predictions


NORAD ID: 12236
Int'l Code: 1978-026CD
Perigee: 795.8 km
Apogee: 1,117.6 km
Inclination: 98.9 °
Period: 104.0 minutes
Semi major axis: 7327 km
RCS: 0.0279 m2 (small)
Launch date: March 5, 1978
Source: United States (US)
Launch site: AIR FORCE WESTERN TEST RANGE (AFWTR)

Note: This is SATELLITE DEBRIS
aabbcc
Your satellite tracking list
Your tracking list is empty




NASA's NSSDC Master Catalog

Two Line Element Set (TLE):
1 12236U 78026CD  20270.29380120 -.00000042  00000-0  75375-6 0  9993
2 12236  98.9013 195.8052 0219536 239.7275 274.5275 13.84046604990597
Source of the keplerian elements: AFSPC